This is the latest recevied weather packets stored in our database for station/object PP5FMM-10. If no packets are shown the sender has not sent any weather packets the latest 10 day(s).
| Time | Temp. | Humidity | Pressure | Rain* | Wind** | Luminosity | Snow |
|---|---|---|---|---|---|---|---|
| 1787961939 | 22.78° C | 83% | 1007.7 hPa | - | - | - | - |
| 1787961037 | 22.78° C | 82% | 1007.8 hPa | - | - | - | - |
| 1787960136 | 23.33° C | 81% | 1007.7 hPa | - | - | - | - |
| 1787957436 | 23.33° C | 81% | 1007.5 hPa | - | - | - | - |
| 1787956536 | 23.33° C | 81% | 1007.3 hPa | - | - | - | - |
| 1787955635 | 23.33° C | 81% | 1006.5 hPa | - | - | - | - |
| 1787952935 | 22.78° C | 81% | 1005.9 hPa | - | - | - | - |
| 1787952035 | 22.78° C | 80% | 1006 hPa | - | - | - | - |
| 1787951905 | 22.78° C | 80% | 1005.5 hPa | - | - | - | - |
| 1787951135 | 22.78° C | 80% | 1005.5 hPa | - | - | - | - |
| 1787950234 | 22.78° C | 80% | 1005.1 hPa | - | - | - | - |
| 1787949334 | 22.78° C | 79% | 1005.1 hPa | - | - | - | - |
| 1787948434 | 22.78° C | 79% | 1004.4 hPa | - | - | - | - |
| 1787947534 | 22.78° C | 78% | 1003.8 hPa | - | - | - | - |
| 1787946634 | 22.22° C | 77% | 1004 hPa | - | - | - | - |
| 1787945733 | 22.22° C | 74% | 1004 hPa | - | - | - | - |
| 1787944833 | 21.67° C | 73% | 1003.7 hPa | - | - | - | - |
| 1787943933 | 22.22° C | 71% | 1004 hPa | - | - | - | - |
| 1787943033 | 22.22° C | 74% | 1004 hPa | - | - | - | - |
| 1787942133 | 21.67° C | 75% | 1003 hPa | - | - | - | - |
| 1787941233 | 21.11° C | 81% | 1003.3 hPa | - | - | - | - |
| 1787940333 | 21.67° C | 86% | 1003.8 hPa | - | - | - | - |
| 1787939433 | 21.67° C | 85% | 1004.1 hPa | - | - | - | - |
| 1787938532 | 21.67° C | 85% | 1003.9 hPa | - | - | - | - |
| 1787937632 | 21.67° C | 85% | 1004.1 hPa | - | - | - | - |
* Rain since midnight (hover to see other rain measurements)
** Current wind speed in m/s (hover to see current wind gust speed)